Stündliche Wetter Frankfurt am Main

Heute, 11 April, Sonntag

Zeit Temperatur Niederschläge Wind Luftdruck Luftfeuchtigkeit
00:00 +10°C° 0 mm 1 m/S 747 mmHg 90%
01:00 +10°C° 0 mm 1 m/S 747 mmHg 89%
02:00 +10°C° 0.1 mm 1 m/S 747 mmHg 90%
03:00 +9°C° 0.1 mm 2 m/S 747 mmHg 91%
04:00 +9°C° 0.1 mm 2 m/S 747 mmHg 93%
05:00 +9°C° 0.1 mm 2 m/S 747 mmHg 93%
06:00 +9°C° 0.1 mm 2 m/S 747 mmHg 94%
07:00 +9°C° 0 mm 2 m/S 747 mmHg 95%
08:00 +9°C° 0.3 mm 2 m/S 747 mmHg 94%
09:00 +10°C° 0.3 mm 2 m/S 747 mmHg 93%
10:00 +10°C° 0.3 mm 3 m/S 747 mmHg 93%
11:00 +12°C° 0.1 mm 2 m/S 747 mmHg 89%
12:00 +13°C° 0.1 mm 2 m/S 746 mmHg 84%
13:00 +14°C° 0.1 mm 2 m/S 746 mmHg 80%
14:00 +10°C° 1.4 mm 2 m/S 747 mmHg 84%
15:00 +8°C° 1.4 mm 3 m/S 747 mmHg 88%
16:00 +5°C° 1.4 mm 4 m/S 748 mmHg 92%
17:00 +5°C° 0.9 mm 4 m/S 749 mmHg 91%
18:00 +4°C° 0.9 mm 3 m/S 750 mmHg 90%
19:00 +4°C° 0.9 mm 3 m/S 751 mmHg 89%
20:00 +4°C° 0 mm 3 m/S 752 mmHg 88%
21:00 +3°C° 0 mm 3 m/S 752 mmHg 88%
22:00 +4°C° 0 mm 2 m/S 753 mmHg 87%
23:00 +4°C° 0 mm 2 m/S 754 mmHg 87%

Morgen, 12 April, Montag

Zeit Temperatur Niederschläge Wind Luftdruck Luftfeuchtigkeit
00:00 +4°C° 0 mm 2 m/S 754 mmHg 87%
01:00 +4°C° 0 mm 2 m/S 755 mmHg 87%
02:00 +3°C° 0 mm 2 m/S 755 mmHg 86%
03:00 +3°C° 0 mm 2 m/S 756 mmHg 85%
04:00 +2°C° 0 mm 3 m/S 756 mmHg 84%
05:00 +3°C° 0 mm 2 m/S 757 mmHg 83%
06:00 +3°C° 0 mm 2 m/S 757 mmHg 82%
07:00 +3°C° 0 mm 2 m/S 758 mmHg 80%
08:00 +4°C° 0 mm 2 m/S 758 mmHg 75%
09:00 +4°C° 0 mm 2 m/S 759 mmHg 69%
10:00 +4°C° 0 mm 3 m/S 759 mmHg 63%
11:00 +6°C° 0 mm 2 m/S 759 mmHg 55%
12:00 +8°C° 0 mm 2 m/S 759 mmHg 47%
13:00 +9°C° 0 mm 2 m/S 759 mmHg 39%
14:00 +9°C° 0 mm 2 m/S 759 mmHg 38%
15:00 +9°C° 0 mm 2 m/S 759 mmHg 36%
16:00 +10°C° 0 mm 2 m/S 759 mmHg 34%
17:00 +9°C° 0 mm 2 m/S 759 mmHg 41%
18:00 +7°C° 0 mm 2 m/S 759 mmHg 48%
19:00 +6°C° 0 mm 2 m/S 760 mmHg 54%
20:00 +6°C° 0 mm 2 m/S 760 mmHg 61%
21:00 +5°C° 0 mm 2 m/S 760 mmHg 68%
22:00 +4°C° 0 mm 2 m/S 761 mmHg 74%
23:00 +5°C° 0 mm 1 m/S 761 mmHg 78%

übermorgen, 13 April, Dienstag

Zeit Temperatur Niederschläge Wind Luftdruck Luftfeuchtigkeit
00:00 +5°C° 0 mm 1 m/S 761 mmHg 82%
01:00 +4°C° 0 mm 1 m/S 761 mmHg 85%
02:00 +4°C° 0 mm 1 m/S 762 mmHg 86%
03:00 +3°C° 0 mm 2 m/S 762 mmHg 87%
04:00 +3°C° 0 mm 2 m/S 762 mmHg 88%
05:00 +3°C° 0 mm 2 m/S 762 mmHg 86%
06:00 +3°C° 0 mm 2 m/S 763 mmHg 83%
07:00 +2°C° 0 mm 2 m/S 763 mmHg 81%
08:00 +4°C° 0 mm 2 m/S 763 mmHg 71%
09:00 +4°C° 0 mm 3 m/S 763 mmHg 60%
10:00 +7°C° 0 mm 3 m/S 763 mmHg 49%
11:00 +8°C° 0 mm 3 m/S 763 mmHg 45%
12:00 +9°C° 0 mm 3 m/S 763 mmHg 40%
13:00 +10°C° 0 mm 3 m/S 762 mmHg 35%
14:00 +10°C° 0 mm 3 m/S 762 mmHg 36%
15:00 +10°C° 0 mm 4 m/S 762 mmHg 37%
16:00 +8°C° 0 mm 4 m/S 762 mmHg 38%
17:00 +8°C° 0.1 mm 3 m/S 762 mmHg 44%
18:00 +7°C° 0.1 mm 3 m/S 762 mmHg 50%
19:00 +6°C° 0.1 mm 2 m/S 762 mmHg 56%
20:00 +5°C° 0 mm 2 m/S 763 mmHg 60%
21:00 +4°C° 0 mm 2 m/S 763 mmHg 64%
22:00 +4°C° 0 mm 2 m/S 763 mmHg 67%
23:00 +3°C° 0 mm 2 m/S 763 mmHg 69%

14 April, Mittwoch

Zeit Temperatur Niederschläge Wind Luftdruck Luftfeuchtigkeit
00:00 +4°C° 0 mm 1 m/S 763 mmHg 71%
01:00 +3°C° 0 mm 1 m/S 763 mmHg 74%
02:00 +3°C° 0 mm 1 m/S 763 mmHg 75%
03:00 +2°C° 0 mm 1 m/S 763 mmHg 77%
04:00 +2°C° 0 mm 1 m/S 763 mmHg 78%
05:00 +2°C° 0 mm 1 m/S 763 mmHg 76%
06:00 +3°C° 0 mm 1 m/S 763 mmHg 74%
07:00 +3°C° 0 mm 1 m/S 763 mmHg 71%
08:00 +4°C° 0 mm 2 m/S 763 mmHg 64%
09:00 +6°C° 0 mm 2 m/S 763 mmHg 56%
10:00 +7°C° 0 mm 2 m/S 763 mmHg 48%
11:00 +8°C° 0 mm 2 m/S 762 mmHg 43%
12:00 +9°C° 0 mm 2 m/S 762 mmHg 38%
13:00 +9°C° 0 mm 3 m/S 761 mmHg 32%
14:00 +9°C° 0 mm 3 m/S 761 mmHg 34%
15:00 +9°C° 0 mm 3 m/S 761 mmHg 36%
16:00 +9°C° 0 mm 3 m/S 760 mmHg 38%
17:00 +8°C° 0 mm 3 m/S 760 mmHg 45%
18:00 +7°C° 0 mm 3 m/S 760 mmHg 52%
19:00 +6°C° 0 mm 2 m/S 760 mmHg 59%
20:00 +5°C° 0 mm 2 m/S 761 mmHg 65%
21:00 +4°C° 0 mm 2 m/S 761 mmHg 70%
22:00 +3°C° 0 mm 2 m/S 761 mmHg 76%
23:00 +3°C° 0 mm 2 m/S 761 mmHg 77%

15 April, Donnerstag

Zeit Temperatur Niederschläge Wind Luftdruck Luftfeuchtigkeit
00:00 +3°C° 0 mm 2 m/S 761 mmHg 78%
01:00 +3°C° 0 mm 1 m/S 761 mmHg 80%
02:00 +2°C° 0 mm 2 m/S 761 mmHg 81%
03:00 +1°C° 0 mm 2 m/S 761 mmHg 82%
04:00 +1°C° 0 mm 2 m/S 761 mmHg 83%
05:00 +1°C° 0 mm 2 m/S 761 mmHg 81%
06:00 +2°C° 0 mm 2 m/S 761 mmHg 79%
07:00 +2°C° 0 mm 2 m/S 761 mmHg 77%
08:00 +3°C° 0 mm 3 m/S 762 mmHg 72%
09:00 +4°C° 0 mm 3 m/S 762 mmHg 66%
10:00 +5°C° 0 mm 4 m/S 762 mmHg 61%
11:00 +6°C° 0 mm 4 m/S 761 mmHg 53%
12:00 +7°C° 0 mm 4 m/S 761 mmHg 45%
13:00 +8°C° 0 mm 4 m/S 761 mmHg 37%
14:00 +8°C° 0 mm 5 m/S 761 mmHg 37%
15:00 +8°C° 0 mm 5 m/S 761 mmHg 38%
16:00 +8°C° 0 mm 5 m/S 760 mmHg 38%
17:00 +7°C° 0 mm 4 m/S 761 mmHg 45%
18:00 +6°C° 0 mm 4 m/S 761 mmHg 51%
19:00 +5°C° 0 mm 3 m/S 761 mmHg 57%
20:00 +4°C° 0 mm 3 m/S 761 mmHg 61%
21:00 +3°C° 0 mm 3 m/S 761 mmHg 65%
22:00 +4°C° 0 mm 2 m/S 761 mmHg 70%
23:00 +3°C° 0 mm 2 m/S 761 mmHg 73%

16 April, Freitag

Zeit Temperatur Niederschläge Wind Luftdruck Luftfeuchtigkeit
00:00 +3°C° 0 mm 2 m/S 761 mmHg 77%
01:00 +2°C° 0 mm 2 m/S 761 mmHg 81%
02:00 +2°C° 0 mm 2 m/S 761 mmHg 82%
03:00 +2°C° 0 mm 2 m/S 760 mmHg 84%
04:00 +2°C° 0 mm 2 m/S 760 mmHg 85%
05:00 +2°C° 0 mm 2 m/S 760 mmHg 82%
06:00 +2°C° 0 mm 2 m/S 760 mmHg 80%
07:00 +3°C° 0 mm 2 m/S 760 mmHg 77%
08:00 +3°C° 0 mm 3 m/S 760 mmHg 71%
09:00 +5°C° 0 mm 3 m/S 760 mmHg 65%
10:00 +6°C° 0 mm 4 m/S 760 mmHg 59%
11:00 +7°C° 0 mm 4 m/S 760 mmHg 58%
12:00 +7°C° 0 mm 4 m/S 760 mmHg 58%
13:00 +7°C° 0 mm 4 m/S 760 mmHg 58%
14:00 +7°C° 0 mm 4 m/S 759 mmHg 58%
15:00 +8°C° 0 mm 4 m/S 759 mmHg 57%
16:00 +8°C° 0 mm 4 m/S 759 mmHg 57%
17:00 +7°C° 0 mm 4 m/S 759 mmHg 60%
18:00 +8°C° 0 mm 3 m/S 759 mmHg 62%
19:00 +7°C° 0 mm 3 m/S 759 mmHg 65%
20:00 +7°C° 0 mm 2 m/S 759 mmHg 68%
21:00 +6°C° 0 mm 2 m/S 759 mmHg 71%
22:00 +6°C° 0 mm 2 m/S 759 mmHg 74%
23:00 +5°C° 0 mm 2 m/S 759 mmHg 76%
Mehr zeigen

Wir brauchen deine Erlaubnis

Meteoprog und unser Service Anbieter werden persönliche Daten aufbewahren, so wie Cookies, Geräte Bezeichnung oder ähnliche Technologien von deinem Gerät und Prozess, so wie Persönliche Daten Inhalte und Werbungen, genauso wie social Media und den Verkehr zu analysieren.

  • Aufbewahrung und/oder Zugang zu deiner Geräte Informationen.

    Cookies, Geräte Bezeichnung oder andere Informationen, können aufbewahrt oder Zugang zu deinem Gerät erhalten, für den Grund, der oben angegeben wird.

  • Personalisierte Werbung und Inhalte, Messungen, Einblick in das Publikum und Produkt Entwicklung.

    Werbungen und Inhalte können personalisiert werden, basierend auf ein Profil. Mehr Daten können besser personalisierte Werbungen und Inhalte hinzufügen. Werbung und Inhalte können gezeigt und gemessen werden. Einblicke über das Publikum, welche die Werbung gesehen haben und den Inhalt, können abgeleitet werden. So wie Daten können genutzt werden, um es zu verbessern oder die Benutzer Erfahrung zu verbessern das System und die Software.

Wenn du “Ich stimme zu” klickst, erlaubst du uns, die Cookies zu benutzen die Geräte Bezeichnung, den Web oder ähnliche Technologien zu benutzen. Deine Settings, können in deinem Gerät bei deinem Browser geändert werden.

Für den bestimmten Zweck, berechtigten Interessen beruhen darauf, mehr als auf den Inhalt. Du kannst mehr darüber in unseren Privaten und Cookie Politik lesen.